1516809601.12,39398,7.19,73966.3,-2.95,-3.67,-3.55,0,*57
1516809602.36,39399,7.19,73974.5,-2.95,-3.71,-3.67,0,*50
1516809603.6,39400,7.19,73974.5,-2.95,-3.67,-3.67,0,*50
1516809604.85,39401,7.19,73972.0,-2.95,-3.67,-3.59,0,*5C
1516809606.12,39402,7.19,73972.3,-2.97,-3.59,-3.59,0,*50
1516809607.37,39403,7.19,73974.3,-2.95,-3.59,-3.55,0,*5F
1516809608.64,39404,7.19,73974.3,-2.97,-3.59,-3.59,0,*56
1516809609.88,39405,7.19,73970.3,-2.95,-3.59,-3.55,0,*59
1516809611.12,39406,7.19,73966.3,-2.95,-3.55,-3.47,0,*55
1516809612.37,39407,7.19,73966.0,-2.95,-3.47,-3.47,0,*57
1516809613.61,39408,7.19,73966.0,-2.95,-3.47,-3.43,0,*5C
1516809614.85,39409,7.19,73966.3,-2.95,-3.55,-3.47,0,*5A
1516809616.09,39410,7.19,73964.5,-2.95,-3.55,-3.55,0,*51
1516809617.34,39411,7.19,73962.8,-2.95,-3.59,-3.59,0,*50
1516809618.58,39412,7.19,73964.3,-2.95,-3.55,-3.55,0,*53
1516809619.82,39413,7.19,73964.3,-2.95,-3.55,-3.55,0,*52
1516809621.07,39414,7.19,73964.0,-2.91,-3.59,-3.59,0,*51
1516809622.32,39415,7.19,73964.8,-2.91,-3.59,-3.55,0,*5C
1516809623.57,39416,7.19,73962.8,-2.95,-3.59,-3.59,0,*57
1516809624.82,39417,7.19,73964.8,-2.91,-3.59,-3.59,0,*52
1516809626.07,39418,7.19,73960.0,-2.91,-3.59,-3.55,0,*51
1516809627.31,39419,7.19,73962.8,-2.91,-3.55,-3.55,0,*5C
1516809628.56,39420,7.19,73964.5,-2.91,-3.59,-3.59,0,*56
1516809629.8,39421,7.19,73966.3,-2.95,-3.55,-3.55,0,*53
1516809631.05,39422,7.19,73964.8,-2.95,-3.59,-3.55,0,*5C
1516809632.28,39423,7.19,73968.0,-2.95,-3.55,-3.55,0,*51
1516809633.52,39424,7.19,73966.3,-2.95,-3.55,-3.47,0,*55
1516809634.77,39425,7.19,73968.3,-2.91,-3.47,-3.47,0,*53
1516809636.01,39426,7.19,73966.5,-2.91,-3.55,-3.55,0,*50
1516809637.26,39427,7.19,73962.5,-2.91,-3.59,-3.55,0,*5D
1516809638.5,39428,7.19,73964.8,-2.91,-3.55,-3.55,0,*5E
1516809639.75,39429,7.19,73964.5,-2.95,-3.59,-3.59,0,*5B
1516809641.0,39430,7.19,73966.8,-2.91,-3.59,-3.59,0,*57
1516809642.24,39431,7.19,73964.8,-2.95,-3.55,-3.67,0,*53
1516809643.48,39432,7.19,73968.3,-2.91,-3.71,-3.55,0,*53
1516809644.73,39433,7.19,73966.0,-2.95,-3.67,-3.59,0,*5D
1516809645.98,39434,7.19,73964.5,-2.95,-3.59,-3.59,0,*57
1516809647.23,39435,7.19,73966.3,-2.95,-3.59,-3.67,0,*5B
1516809648.47,39436,7.19,73968.8,-2.91,-3.67,-3.67,0,*51
1516809649.71,39437,7.19,73966.0,-2.95,-3.71,-3.71,0,*54
1516809650.95,39438,7.19,73968.8,-2.91,-3.67,-3.71,0,*58
1516809652.19,39439,7.19,73970.0,-2.95,-3.67,-3.67,0,*5A
1516809653.43,39440,7.19,73966.5,-2.95,-3.67,-3.67,0,*54
1516809654.68,39441,7.19,73970.8,-2.91,-3.71,-3.67,0,*56
1516809655.92,39442,7.19,73968.3,-2.91,-3.67,-3.67,0,*52
1516809657.16,39443,7.19,73968.5,-2.95,-3.67,-3.67,0,*57
1516809658.41,39444,7.19,73968.5,-2.91,-3.59,-3.67,0,*59
1516809659.65,39445,7.19,73970.3,-2.95,-3.59,-3.67,0,*5C
1516809660.89,39446,7.19,73972.3,-2.95,-3.67,-3.67,0,*52
1516809662.13,39447,7.19,73972.3,-2.95,-3.67,-3.67,0,*53
1516809663.37,39448,7.19,73970.0,-2.95,-3.67,-3.67,0,*5C
1516809664.62,39449,7.19,73974.8,-2.91,-3.67,-3.67,0,*59
1516809665.85,39450,7.19,73974.0,-2.95,-3.71,-3.71,0,*55
1516809667.1,39451,7.19,73972.5,-2.95,-3.71,-3.67,0,*53
1516809668.34,39452,7.19,73976.5,-2.95,-3.71,-3.71,0,*57
1516809669.58,39453,7.19,73976.0,-2.95,-3.71,-3.67,0,*51
1516809670.82,39454,7.19,73974.5,-2.95,-3.67,-3.67,0,*51
1516809672.06,39455,7.19,73974.8,-2.95,-3.67,-3.71,0,*57
1516809673.3,39456,7.19,73972.8,-2.91,-3.71,-3.71,0,*57
1516809674.54,39457,7.19,73974.8,-2.95,-3.71,-3.67,0,*55
1516809675.78,39458,7.19,73974.5,-2.95,-3.71,-3.67,0,*5A
1516809677.03,39459,7.19,73972.3,-2.95,-3.71,-3.59,0,*56
1516809678.27,39460,7.25,73980.8,-2.95,-3.67,-3.67,0,*56
1516809679.51,39461,7.19,73978.5,-2.95,-3.59,-3.67,0,*5A
1516809680.75,39462,7.19,73972.0,-2.95,-3.55,-3.47,0,*57
1516809682.0,39463,7.19,73976.5,-2.95,-3.47,-3.43,0,*51
1516809683.24,39464,7.19,73976.8,-2.91,-3.55,-3.55,0,*56
1516809684.48,39465,7.19,73978.3,-2.95,-3.55,-3.55,0,*53
1516809685.72,39466,7.19,73976.0,-2.91,-3.55,-3.55,0,*54
1516809686.99,39467,7.19,73976.0,-2.97,-3.63,-3.63,0,*53
1516809688.23,39468,7.19,73978.5,-2.95,-3.55,-3.59,0,*52
1516809689.48,39469,7.19,73976.5,-2.95,-3.55,-3.59,0,*53
1516809690.72,39470,7.19,73980.5,-2.95,-3.55,-3.47,0,*54
1516809691.96,39471,7.19,73976.3,-2.91,-3.55,-3.55,0,*52
1516809693.2,39472,7.19,73976.3,-2.95,-3.55,-3.55,0,*55
1516809694.44,39473,7.19,73980.3,-2.95,-3.59,-3.55,0,*58
1516809695.68,39474,7.19,73976.8,-2.95,-3.55,-3.55,0,*53
1516809696.93,39475,7.19,73978.3,-2.95,-3.55,-3.59,0,*5E
1516809698.17,39476,7.19,73978.0,-2.95,-3.59,-3.55,0,*5D
1516809699.41,39477,7.19,73980.5,-2.91,-3.55,-3.55,0,*54
1516809700.66,39478,7.19,73976.8,-2.91,-3.59,-3.55,0,*57
1516809701.9,39479,7.19,73976.5,-2.91,-3.59,-3.55,0,*56
1516809703.14,39480,7.19,73976.3,-2.95,-3.55,-3.55,0,*58
1516809704.4,39481,7.19,73976.3,-2.91,-3.59,-3.59,0,*5D
1516809705.65,39482,7.19,73978.0,-2.91,-3.59,-3.59,0,*5E
1516809706.89,39483,7.19,73974.8,-2.91,-3.59,-3.55,0,*53
1516809708.14,39484,7.19,73980.0,-2.91,-3.55,-3.55,0,*58
1516809709.37,39485,7.19,73976.8,-2.95,-3.55,-3.55,0,*5D
1516809710.62,39486,7.19,73976.3,-2.95,-3.55,-3.59,0,*52
1516809711.86,39487,7.19,73982.0,-2.91,-3.55,-3.55,0,*5B
1516809713.11,39488,7.19,73982.0,-2.95,-3.59,-3.47,0,*5F
1516809714.35,39489,7.19,73982.5,-2.95,-3.47,-3.55,0,*52
1516809715.59,39490,7.19,73982.8,-2.95,-3.55,-3.55,0,*59
1516809716.83,39491,7.19,73978.8,-2.91,-3.59,-3.55,0,*50
1516809718.08,39492,7.19,73978.8,-2.95,-3.55,-3.59,0,*57
1516809719.33,39493,7.19,73978.5,-2.91,-3.55,-3.59,0,*52
1516809720.58,39494,7.19,73978.3,-2.91,-3.59,-3.59,0,*59
1516809721.83,39495,7.19,73972.8,-2.91,-3.55,-3.59,0,*54
1516809723.07,39496,7.19,73976.8,-2.95,-3.59,-3.55,0,*53
1516809724.32,39497,7.19,73972.5,-2.91,-3.55,-3.59,0,*56
1516809725.56,39498,7.19,73978.3,-2.95,-3.55,-3.55,0,*51
1516809726.81,39499,7.19,73976.8,-2.91,-3.47,-3.55,0,*57
1516809728.05,39500,7.19,73976.5,-2.91,-3.55,-3.59,0,*59
1516809729.31,39501,7.19,73978.0,-2.91,-3.59,-3.59,0,*54
1516809730.55,39502,7.19,73974.3,-2.91,-3.59,-3.55,0,*5B
1516809731.81,39503,7.19,73974.0,-2.91,-3.59,-3.59,0,*56
1516809733.06,39504,7.19,73976.0,-2.95,-3.59,-3.59,0,*55
1516809734.31,39505,7.19,73978.0,-2.91,-3.55,-3.59,0,*5C
1516809735.55,39506,7.19,73978.0,-2.91,-3.59,-3.55,0,*5F
1516809736.8,39507,7.19,73974.8,-2.95,-3.59,-3.59,0,*56
1516809738.04,39508,7.19,73972.5,-2.95,-3.59,-3.55,0,*55
1516809739.3,39509,7.19,73970.8,-2.91,-3.59,-3.59,0,*5C
1516809740.55,39510,7.19,73970.0,-2.91,-3.67,-3.59,0,*59
1516809741.79,39511,7.19,73972.8,-2.95,-3.67,-3.59,0,*5C
1516809743.04,39512,7.19,73970.5,-2.95,-3.59,-3.59,0,*52
1516809744.29,39513,7.19,73964.5,-2.95,-3.67,-3.59,0,*5E
1516809745.53,39514,7.19,73964.8,-2.91,-3.67,-3.55,0,*51
1516809746.79,39515,7.19,73964.8,-2.91,-3.59,-3.59,0,*51
1516809748.04,39516,7.19,73972.0,-2.91,-3.59,-3.59,0,*52
1516809749.28,39517,7.19,73972.0,-2.91,-3.59,-3.55,0,*5F
1516809750.53,39518,7.19,73968.8,-2.91,-3.59,-3.55,0,*50
1516809751.78,39519,7.19,73974.5,-2.91,-3.59,-3.59,0,*5D
1516809753.04,39520,7.19,73974.0,-2.91,-3.59,-3.59,0,*57
1516809754.28,39521,7.19,73968.0,-2.95,-3.71,-3.71,0,*52
1516809755.48,39522,7.19,73970.5,-2.95,-3.75,-3.75,0,*51
1516809756.69,39523,7.25,73970.3,-2.91,-3.75,-3.83,0,*5D
1516809757.9,39524,7.19,73970.3,-2.95,-3.75,-3.75,0,*57
1516809759.14,39525,7.19,73968.0,-2.95,-3.71,-3.71,0,*56
1516809760.38,39526,7.19,73960.3,-2.91,-3.71,-3.67,0,*56
1516809761.62,39527,7.19,73964.5,-2.95,-3.71,-3.67,0,*53
1516809762.87,39528,7.19,73966.0,-2.91,-3.71,-3.71,0,*5F
1516809764.1,39529,7.19,73968.0,-2.95,-3.71,-3.71,0,*5A
1516809765.34,39530,7.19,73970.5,-2.95,-3.71,-3.67,0,*55
1516809766.59,39531,7.19,73966.8,-2.95,-3.71,-3.67,0,*54
1516809767.83,39532,7.19,73970.0,-2.95,-3.71,-3.71,0,*50
1516809769.06,39533,7.19,73966.5,-2.95,-3.71,-3.71,0,*51
1516809770.31,39534,7.19,73970.0,-2.95,-3.71,-3.59,0,*5C
1516809771.56,39535,7.19,73972.5,-2.91,-3.67,-3.59,0,*5E
1516809772.81,39536,7.19,73964.8,-2.95,-3.59,-3.59,0,*54
1516809774.07,39537,7.19,73966.3,-2.91,-3.59,-3.59,0,*51
1516809775.3,39538,7.19,73964.3,-2.95,-3.67,-3.67,0,*5A
1516809776.55,39539,7.19,73970.8,-2.91,-3.59,-3.67,0,*52
1516809777.79,39540,7.19,73968.0,-2.91,-3.71,-3.71,0,*51
1516809779.0,39541,7.19,73966.3,-2.95,-3.75,-3.75,0,*54
1516809780.21,39542,7.19,73962.0,-2.91,-3.75,-3.75,0,*53
1516809781.45,39543,7.25,73960.0,-2.95,-3.71,-3.71,0,*56
1516809782.69,39544,7.19,73958.8,-2.95,-3.71,-3.71,0,*51
1516809783.93,39545,7.19,73958.3,-2.95,-3.67,-3.71,0,*57
1516809785.18,39546,7.19,73970.0,-2.91,-3.71,-3.71,0,*57
1516809786.41,39547,7.19,73960.8,-2.97,-3.75,-3.75,0,*50
1516809787.64,39548,7.19,73960.3,-2.97,-3.75,-3.75,0,*5F
1516809788.87,39549,7.19,73966.5,-2.97,-3.75,-3.75,0,*5E
1516809790.11,39550,7.19,73966.3,-2.95,-3.71,-3.71,0,*54
1516809791.36,39551,7.25,73972.0,-2.97,-3.71,-3.75,0,*53
1516809792.6,39552,7.19,73966.8,-2.97,-3.75,-3.71,0,*50
1516809793.85,39553,7.25,73970.3,-2.97,-3.71,-3.75,0,*51
1516809795.08,39554,7.25,73972.5,-2.97,-3.79,-3.75,0,*5E
1516809796.31,39555,7.25,73976.5,-2.97,-3.79,-3.75,0,*5F
1516809797.54,39556,7.19,73970.3,-2.97,-3.79,-3.75,0,*5C
1516809798.77,39557,7.25,73964.8,-2.97,-3.79,-3.75,0,*5D
1516809800.01,39558,7.19,73968.3,-2.97,-3.79,-3.79,0,*5E
1516809801.21,39559,7.19,73966.0,-2.99,-3.79,-3.79,0,*51
1516809802.44,39560,7.19,73968.5,-2.97,-3.75,-3.75,0,*55
1516809803.66,39561,7.19,73962.3,-2.97,-3.87,-3.87,0,*54
1516809804.94,39562,7.19,73960.8,-2.97,-4.01,-4.01,0,*57
1516809806.19,39563,7.19,73966.8,-2.97,-4.05,-4.01,0,*52
1516809807.42,39564,7.19,73972.0,-2.97,-3.91,-3.91,0,*51
1516809808.63,39565,7.25,73972.5,-2.99,-3.79,-3.79,0,*5E
1516809809.82,39566,7.19,73966.3,-2.99,-3.87,-3.87,0,*5D
1516809811.08,39567,7.19,73966.8,-2.99,-4.01,-4.01,0,*5C
1516809812.36,39568,7.25,73966.0,-2.97,-4.01,-4.01,0,*5D
1516809813.61,39569,7.19,73962.8,-2.99,-4.01,-4.01,0,*52
1516809814.86,39570,7.19,73964.0,-2.99,-4.01,-4.01,0,*5A
1516809816.12,39571,7.25,73966.5,-2.99,-4.01,-4.01,0,*5B
1516809817.37,39572,7.25,73970.8,-2.99,-4.01,-4.01,0,*58
1516809818.61,39573,7.19,73966.5,-2.99,-3.91,-4.01,0,*57
1516809819.81,39574,7.19,73968.3,-2.99,-3.91,-3.87,0,*59
1516809821.01,39575,7.19,73972.5,-2.99,-3.79,-3.87,0,*5E
1516809822.21,39576,7.19,73972.3,-2.99,-3.87,-3.87,0,*5C
1516809823.44,39577,7.19,73966.0,-3.01,-3.95,-3.95,0,*5D
1516809824.67,39578,7.19,73958.5,-3.01,-3.95,-3.91,0,*56
1516809825.87,39579,7.19,73958.5,-3.03,-4.05,-3.95,0,*5F
1516809827.1,39580,7.25,73952.5,-3.01,-3.91,-3.95,0,*51
1516809828.33,39581,7.19,73950.8,-3.01,-3.95,-3.95,0,*54
1516809829.56,39582,7.19,73944.0,-3.01,-3.95,-3.91,0,*53
1516809830.79,39583,7.25,73944.3,-3.01,-4.05,-3.91,0,*5C
1516809832.02,39584,7.19,73940.5,-3.01,-3.91,-3.83,0,*52
1516809833.25,39585,7.25,73942.5,-3.01,-3.91,-3.83,0,*53
1516809834.46,39586,7.25,73936.0,-3.03,-3.83,-3.83,0,*51
1516809835.69,39587,7.25,73938.0,-3.01,-3.83,-3.83,0,*52
1516809836.92,39588,7.25,73936.3,-3.01,-3.79,-3.79,0,*5D
1516809838.18,39589,7.19,73936.8,-3.01,-3.75,-3.67,0,*5F
1516809839.41,39590,7.25,73946.5,-3.01,-3.75,-3.75,0,*54
1516809840.68,39591,7.25,73950.5,-3.01,-3.63,-3.67,0,*51
1516809841.93,39592,7.19,73948.8,-3.01,-3.75,-3.67,0,*55
1516809843.17,39593,7.19,73954.8,-2.99,-3.71,-3.71,0,*57
1516809844.41,39594,7.25,73958.3,-3.01,-3.75,-3.75,0,*50
1516809845.64,39595,7.19,73956.3,-3.01,-3.79,-3.75,0,*5D
1516809846.91,39596,7.25,73958.3,-3.01,-3.55,-3.63,0,*57
1516809848.18,39597,7.25,73956.8,-3.01,-3.43,-3.43,0,*53
1516809849.45,39598,7.19,73960.8,-3.01,-3.63,-3.55,0,*59
1516809850.72,39599,7.25,73964.3,-3.01,-3.63,-3.63,0,*5D
1516809851.98,39600,7.25,73966.0,-2.97,-3.63,-3.63,0,*50
1516809853.22,39601,7.25,73964.0,-2.99,-3.71,-3.71,0,*5F
1516809854.43,39602,7.19,73964.0,-2.99,-3.75,-3.75,0,*5C
1516809855.65,39603,7.25,73968.8,-2.99,-3.75,-3.71,0,*59
1516809856.86,39604,7.19,73970.3,-2.99,-3.75,-3.75,0,*5A
1516809858.07,39605,7.25,73972.0,-2.99,-3.75,-3.75,0,*5B
1516809859.34,39606,7.25,73972.3,-2.97,-3.71,-3.59,0,*5C
1516809860.59,39607,7.25,73974.3,-2.99,-3.63,-3.59,0,*50
1516809861.83,39608,7.19,73972.3,-2.99,-3.59,-3.63,0,*5F
1516809863.08,39609,7.25,73968.5,-2.99,-3.59,-3.51,0,*5F
1516809864.33,39610,7.25,73970.8,-2.99,-3.63,-3.59,0,*56
1516809865.59,39611,7.25,73968.0,-2.97,-3.71,-3.71,0,*50
1516809866.83,39612,7.19,73968.8,-2.99,-3.71,-3.63,0,*5E
1516809868.07,39613,7.19,73970.3,-2.99,-3.71,-3.63,0,*5F
1516809869.34,39614,7.19,73966.5,-2.97,-3.63,-3.63,0,*55
1516809870.61,39615,7.25,73970.3,-2.97,-3.59,-3.63,0,*5D
1516809871.87,39616,7.19,73964.3,-2.97,-3.63,-3.63,0,*57
1516809873.14,39617,7.19,73964.8,-2.97,-3.63,-3.63,0,*56
1516809874.38,39618,7.25,73966.0,-2.99,-3.71,-3.71,0,*57
1516809875.62,39619,7.25,73966.8,-2.99,-3.71,-3.71,0,*56
1516809876.86,39620,7.25,73964.0,-2.99,-3.71,-3.63,0,*5F
1516809878.08,39621,7.19,73960.8,-2.99,-3.75,-3.71,0,*59
1516809879.34,39622,7.19,73966.8,-2.97,-3.71,-3.71,0,*50
1516809880.58,39623,7.19,73964.8,-2.99,-3.71,-3.71,0,*5F
1516809881.83,39624,7.19,73964.0,-2.97,-3.75,-3.71,0,*52
1516809883.08,39625,7.25,73966.0,-2.97,-3.75,-3.63,0,*50
1516809884.34,39626,7.19,73964.0,-2.97,-3.71,-3.71,0,*54
1516809885.59,39627,7.25,73968.8,-2.97,-3.71,-3.75,0,*51
1516809886.85,39628,7.25,73970.0,-2.97,-3.71,-3.71,0,*5A
1516809888.11,39629,7.19,73966.8,-2.97,-3.71,-3.71,0,*5B
1516809889.38,39630,7.25,73966.8,-2.97,-3.63,-3.63,0,*53
1516809890.65,39631,7.25,73970.8,-2.97,-3.59,-3.63,0,*5B
1516809891.91,39632,7.25,73970.0,-2.97,-3.59,-3.63,0,*58
1516809893.16,39633,7.19,73966.3,-2.97,-3.75,-3.63,0,*57
1516809894.41,39634,7.25,73968.3,-2.97,-3.75,-3.71,0,*53
1516809895.67,39635,7.25,73968.3,-2.97,-3.71,-3.71,0,*56
1516809896.92,39636,7.25,73964.5,-2.97,-3.75,-3.71,0,*51
1516809898.19,39637,7.25,73966.0,-2.97,-3.63,-3.59,0,*5D
1516809899.44,39638,7.25,73966.3,-2.99,-3.63,-3.71,0,*56
1516809900.7,39639,7.25,73968.5,-2.97,-3.63,-3.63,0,*5A
1516809901.95,39640,7.25,73964.5,-2.99,-3.63,-3.59,0,*53
1516809903.22,39641,7.19,73962.0,-2.97,-3.63,-3.59,0,*5C
1516809904.49,39642,7.25,73962.8,-2.97,-3.63,-3.63,0,*56
1516809905.76,39643,7.25,73962.0,-2.97,-3.63,-3.63,0,*57
1516809906.98,39644,7.19,73962.3,-2.99,-3.71,-3.75,0,*5A
1516809908.19,39645,7.25,73964.3,-2.99,-3.75,-3.75,0,*5F
1516809909.44,39646,7.25,73968.0,-2.97,-3.71,-3.75,0,*56
1516809910.7,39647,7.25,73970.3,-2.97,-3.59,-3.63,0,*5A
1516809911.97,39648,7.25,73970.0,-2.97,-3.63,-3.63,0,*5C
1516809913.2,39649,7.25,73964.0,-2.97,-3.75,-3.75,0,*5D
1516809914.43,39650,7.25,73964.0,-2.99,-3.71,-3.75,0,*5F
1516809915.67,39651,7.25,73960.8,-2.97,-3.75,-3.63,0,*53
1516809916.92,39652,7.25,73960.3,-2.97,-3.71,-3.75,0,*53
1516809918.18,39653,7.25,73960.0,-2.97,-3.71,-3.71,0,*56
1516809919.41,39654,7.25,73960.8,-2.99,-3.71,-3.75,0,*5B
1516809920.64,39655,7.25,73962.5,-2.97,-3.75,-3.75,0,*50
1516809921.9,39656,7.19,73956.8,-2.97,-3.71,-3.71,0,*53
1516809923.13,39657,7.25,73960.0,-2.97,-3.75,-3.75,0,*52
1516809924.36,39658,7.25,73962.5,-2.97,-3.75,-3.75,0,*5D
1516809925.6,39659,7.19,73954.5,-2.99,-3.71,-3.63,0,*51
1516809926.84,39660,7.25,73956.0,-2.99,-3.71,-3.63,0,*5B
1516809928.05,39661,7.25,73962.0,-2.99,-3.75,-3.75,0,*59
1516809929.28,39662,7.25,73962.5,-2.99,-3.71,-3.75,0,*5E
1516809930.54,39663,7.25,73960.8,-2.97,-3.71,-3.63,0,*56
1516809931.8,39664,7.25,73956.0,-2.97,-3.71,-3.71,0,*52
1516809933.02,39665,7.25,73958.0,-2.99,-3.75,-3.71,0,*59
1516809934.26,39666,7.25,73956.3,-2.99,-3.71,-3.71,0,*5E
1516809935.47,39667,7.25,73956.8,-2.99,-3.75,-3.75,0,*5F
1516809936.7,39668,7.25,73960.3,-2.97,-3.75,-3.75,0,*5E
1516809937.94,39669,7.25,73970.5,-2.97,-3.75,-3.75,0,*5F
1516809939.17,39670,7.25,73970.5,-2.97,-3.75,-3.79,0,*5B
1516809940.37,39671,7.25,73970.3,-2.99,-3.75,-3.79,0,*54
1516809941.64,39672,7.25,73972.3,-2.97,-3.71,-3.71,0,*55
1516809942.88,39673,7.25,73970.0,-2.99,-3.63,-3.71,0,*59
1516809944.13,39674,7.25,73968.8,-2.99,-3.59,-3.59,0,*5D
1516809945.39,39675,7.25,73966.0,-2.97,-3.71,-3.63,0,*51
1516809946.63,39676,7.25,73968.5,-2.99,-3.71,-3.71,0,*5F
1516809947.87,39677,7.25,73970.5,-2.99,-3.71,-3.71,0,*5E
1516809949.12,39678,7.25,73968.8,-2.99,-3.71,-3.59,0,*5B
1516809950.39,39679,7.25,73974.0,-2.97,-3.59,-3.59,0,*5E
1516809951.66,39680,7.25,73970.5,-2.97,-3.51,-3.59,0,*50
1516809952.94,39681,7.25,73968.0,-2.97,-3.59,-3.59,0,*59
1516809954.21,39682,7.25,73972.0,-2.97,-3.59,-3.51,0,*52
1516809955.45,39683,7.25,73966.8,-2.97,-3.71,-3.75,0,*5F
1516809956.68,39684,7.25,73970.0,-2.99,-3.71,-3.75,0,*56
1516809957.91,39685,7.25,73966.3,-2.99,-3.71,-3.71,0,*53
1516809959.16,39686,7.25,73966.5,-2.99,-3.71,-3.71,0,*50
1516809960.38,39687,7.25,73964.0,-2.99,-3.71,-3.75,0,*55
1516809961.64,39688,7.25,73966.0,-2.97,-3.71,-3.63,0,*53
1516809962.89,39689,7.25,73968.3,-2.99,-3.63,-3.71,0,*5C
1516809964.15,39690,7.25,73966.8,-2.97,-3.63,-3.71,0,*5A
1516809965.42,39691,7.25,73966.0,-2.97,-3.63,-3.71,0,*5B
1516809966.66,39692,7.25,73964.5,-2.99,-3.63,-3.63,0,*55
1516809967.93,39693,7.25,73964.8,-2.97,-3.63,-3.63,0,*5A
1516809969.18,39694,7.25,73968.0,-2.99,-3.63,-3.59,0,*5A
1516809970.45,39695,7.25,73968.3,-2.97,-3.59,-3.59,0,*5C
1516809971.7,39696,7.25,73966.8,-2.99,-3.63,-3.59,0,*58
1516809972.97,39697,7.25,73966.8,-2.97,-3.63,-3.63,0,*5E
1516809974.23,39698,7.25,73966.3,-2.97,-3.63,-3.63,0,*51
1516809975.48,39699,7.25,73970.3,-2.99,-3.63,-3.59,0,*57
1516809976.75,39700,7.25,73968.0,-2.97,-3.63,-3.59,0,*58
1516809978.0,39701,7.25,73970.3,-2.99,-3.63,-3.63,0,*5E
1516809979.27,39702,7.25,73968.5,-2.97,-3.63,-3.59,0,*5A
1516809980.52,39703,7.25,73974.8,-2.97,-3.75,-3.71,0,*56
1516809981.76,39704,7.25,73964.8,-2.99,-3.63,-3.63,0,*5B
1516809983.03,39705,7.25,73970.8,-2.97,-3.63,-3.59,0,*5D
1516809984.3,39706,7.25,73968.5,-2.97,-3.63,-3.63,0,*57
1516809985.56,39707,7.25,73970.0,-2.97,-3.71,-3.63,0,*55
1516809986.84,39708,7.25,73972.3,-2.97,-3.63,-3.59,0,*50
1516809988.11,39709,7.25,73972.8,-2.97,-3.59,-3.59,0,*58
1516809989.38,39710,7.25,73972.8,-2.97,-3.59,-3.63,0,*59
1516809990.65,39711,7.25,73974.3,-2.97,-3.59,-3.59,0,*51
1516809991.92,39712,7.25,73972.5,-2.97,-3.63,-3.63,0,*52
1516809993.18,39713,7.25,73974.5,-2.97,-3.63,-3.63,0,*53
1516809994.45,39714,7.25,73972.8,-2.97,-3.63,-3.63,0,*54
1516809995.72,39715,7.25,73972.5,-2.97,-3.63,-3.63,0,*55
1516809996.96,39716,7.25,73974.5,-2.99,-3.63,-3.63,0,*58
1516809998.23,39717,7.25,73972.5,-2.97,-3.63,-3.63,0,*57
1516809999.47,39718,7.25,73974.5,-2.99,-3.59,-3.63,0,*5F
1516810000.74,39719,7.25,73974.5,-2.97,-3.59,-3.59,0,*59
1516810002.01,39720,7.25,73970.5,-2.97,-3.71,-3.71,0,*53
1516810003.27,39721,7.25,73974.3,-2.97,-3.63,-3.71,0,*51
1516810004.54,39722,7.25,73972.3,-2.97,-3.71,-3.59,0,*5B
1516810005.78,39723,7.25,73972.0,-2.99,-3.59,-3.63,0,*57
1516810007.05,39724,7.25,73968.5,-2.97,-3.63,-3.63,0,*57
1516810008.32,39725,7.25,73972.0,-2.97,-3.63,-3.71,0,*55
1516810009.58,39726,7.25,73968.5,-2.97,-3.71,-3.63,0,*56
1516810010.85,39727,7.25,73964.5,-2.97,-3.59,-3.59,0,*54
1516810012.12,39728,7.25,73966.8,-2.97,-3.63,-3.63,0,*5B
1516810013.38,39729,7.25,73968.8,-2.97,-3.71,-3.63,0,*59
1516810014.65,39730,7.25,73968.0,-2.97,-3.63,-3.63,0,*52
1516810015.92,39731,7.25,73972.3,-2.97,-3.63,-3.63,0,*53
1516810017.18,39732,7.25,73972.0,-2.97,-3.71,-3.71,0,*50
1516810018.42,39733,7.25,73968.5,-2.99,-3.63,-3.71,0,*5C
1516810019.69,39734,7.25,73970.0,-2.97,-3.63,-3.63,0,*56
1516810020.91,39735,7.25,73970.0,-2.99,-3.71,-3.75,0,*5D
1516810022.18,39736,7.25,73964.0,-2.97,-3.71,-3.71,0,*54
1516810023.42,39737,7.25,73968.8,-2.99,-3.71,-3.71,0,*5B
1516810024.66,39738,7.25,73970.8,-2.97,-3.75,-3.71,0,*5E
1516810025.89,39739,7.25,73968.5,-2.97,-3.75,-3.75,0,*5B
1516810027.13,39740,7.25,73966.3,-2.97,-3.75,-3.75,0,*55
1516810028.37,39741,7.25,73968.3,-2.97,-3.75,-3.71,0,*50
1516810029.63,39742,7.25,73966.0,-2.97,-3.71,-3.71,0,*57
1516810030.87,39743,7.25,73966.5,-2.97,-3.75,-3.75,0,*56
1516810032.1,39744,7.25,73966.5,-2.97,-3.75,-3.75,0,*51
1516810033.34,39745,7.25,73966.8,-2.97,-3.75,-3.71,0,*54
1516810034.57,39746,7.25,73970.0,-2.99,-3.71,-3.75,0,*59
1516810035.83,39747,7.25,73970.0,-2.97,-3.71,-3.71,0,*52
1516810037.08,39748,7.25,73970.5,-2.97,-3.71,-3.75,0,*59
1516810038.34,39749,7.25,73968.3,-2.97,-3.71,-3.71,0,*5C
1516810039.57,39750,7.25,73970.0,-2.97,-3.75,-3.75,0,*54
1516810040.8,39751,7.25,73966.5,-2.97,-3.75,-3.75,0,*55
1516810042.01,39752,7.25,73966.5,-2.99,-3.75,-3.75,0,*58
1516810043.26,39753,7.25,73962.3,-2.97,-3.71,-3.75,0,*53
1516810044.5,39754,7.25,73960.8,-2.99,-3.71,-3.71,0,*5E
1516810045.75,39755,7.25,73964.5,-2.97,-3.75,-3.71,0,*55
1516810046.95,39756,7.25,73964.5,-2.99,-3.75,-3.75,0,*5C
1516810048.18,39757,7.25,73964.3,-2.97,-3.75,-3.75,0,*53
1516810049.42,39758,7.25,73966.0,-2.99,-3.71,-3.71,0,*52
1516810050.66,39759,7.25,73964.8,-2.99,-3.71,-3.71,0,*53
1516810051.9,39760,7.25,73962.0,-2.99,-3.71,-3.71,0,*59
1516810053.13,39761,7.25,73968.0,-2.99,-3.71,-3.75,0,*5C
1516810054.34,39762,7.25,73960.3,-2.99,-3.75,-3.75,0,*5B
1516810055.58,39763,7.25,73966.0,-2.97,-3.75,-3.71,0,*50
1516810056.82,39764,7.25,73964.0,-2.99,-3.71,-3.71,0,*5D
1516810058.03,39765,7.25,73974.8,-2.99,-3.75,-3.75,0,*5C
1516810059.27,39766,7.25,73970.8,-2.99,-3.71,-3.71,0,*5F
1516810060.5,39767,7.25,73968.0,-2.97,-3.75,-3.75,0,*50
1516810061.74,39768,7.25,73970.8,-2.99,-3.71,-3.71,0,*51
1516810063.0,39769,7.25,73968.0,-2.97,-3.71,-3.71,0,*5E
1516810064.24,39770,7.25,73974.0,-2.99,-3.71,-3.71,0,*58
1516810065.47,39771,7.25,73968.8,-2.99,-3.75,-3.71,0,*5D
1516810066.7,39772,7.25,73972.3,-2.99,-3.71,-3.71,0,*5A
1516810067.94,39773,7.25,73970.8,-3.01,-3.75,-3.75,0,*5B
1516810069.2,39774,7.25,73974.3,-2.97,-3.71,-3.63,0,*51
1516810070.44,39775,7.25,73972.0,-2.99,-3.71,-3.63,0,*5E
1516810071.68,39776,7.25,73970.3,-2.99,-3.71,-3.63,0,*5D
1516810072.89,39777,7.25,73972.8,-2.99,-3.75,-3.75,0,*5F
1516810074.13,39778,7.25,73976.3,-2.99,-3.71,-3.71,0,*50
1516810075.37,39779,7.25,73972.0,-2.99,-3.71,-3.63,0,*52
1516810076.61,39780,7.25,73970.8,-2.99,-3.63,-3.63,0,*57
1516810077.86,39781,7.25,73970.3,-2.99,-3.59,-3.63,0,*5F
1516810079.1,39782,7.25,73970.3,-2.99,-3.63,-3.63,0,*55
1516810080.34,39783,7.25,73974.3,-2.99,-3.63,-3.71,0,*57
1516810081.57,39784,7.25,73968.5,-2.99,-3.75,-3.71,0,*57
1516810082.81,39785,7.25,73974.5,-2.99,-3.71,-3.71,0,*52
1516810084.05,39786,7.25,73970.0,-2.97,-3.71,-3.75,0,*5B
1516810085.32,39787,7.25,73970.3,-2.97,-3.71,-3.71,0,*5E
1516810086.54,39788,7.25,73970.3,-2.99,-3.75,-3.63,0,*58
1516810087.78,39789,7.25,73978.5,-2.99,-3.71,-3.63,0,*5D
1516810089.01,39790,7.25,73978.8,-2.99,-3.71,-3.75,0,*52
1516810090.24,39791,7.25,73980.3,-2.97,-3.75,-3.75,0,*59
1516810091.45,39792,7.25,73976.3,-2.99,-3.75,-3.75,0,*54
1516810092.67,39793,7.25,73970.3,-2.99,-3.71,-3.75,0,*51
1516810093.88,39794,7.25,73966.5,-2.99,-3.75,-3.75,0,*52
1516810095.08,39795,7.25,73968.8,-2.99,-3.79,-3.79,0,*53
1516810096.29,39796,7.25,73972.5,-2.99,-3.79,-3.79,0,*50
1516810097.52,39797,7.25,73974.3,-3.01,-3.83,-3.83,0,*51
1516810098.75,39798,7.25,73982.0,-2.99,-3.79,-3.71,0,*56
1516810099.95,39799,7.25,73976.8,-2.99,-3.75,-3.75,0,*5F
1516810101.19,39800,7.25,73978.0,-3.01,-3.79,-3.79,0,*50
1516810102.4,39801,7.25,73974.5,-2.99,-3.75,-3.75,0,*51
1516810103.6,39802,7.25,73972.3,-2.99,-3.75,-3.75,0,*52
1516810104.81,39803,7.25,73972.3,-2.99,-3.75,-3.75,0,*53
1516810106.02,39804,7.25,73974.3,-2.99,-3.75,-3.75,0,*54
1516810107.26,39805,7.25,73968.0,-3.01,-3.79,-3.79,0,*55
1516810108.49,39806,7.25,73974.3,-3.01,-3.75,-3.79,0,*5A
1516810109.72,39807,7.25,73978.8,-3.01,-3.75,-3.79,0,*5B
1516810110.96,39808,7.25,73978.5,-3.01,-3.75,-3.79,0,*54
1516810112.19,39809,7.25,73976.5,-3.01,-3.79,-3.79,0,*59
1516810113.4,39810,7.25,73976.3,-3.03,-3.79,-3.79,0,*53
1516810114.64,39811,7.25,73974.5,-3.01,-3.79,-3.75,0,*5C
1516810115.87,39812,7.25,73978.0,-3.01,-3.79,-3.79,0,*53
1516810117.1,39813,7.25,73976.8,-3.01,-3.79,-3.79,0,*52
1516810118.34,39814,7.25,73978.3,-3.01,-3.75,-3.75,0,*55
1516810119.57,39815,7.31,73976.3,-3.01,-3.79,-3.83,0,*51
1516810120.79,39816,7.25,73974.3,-3.01,-4.05,-3.95,0,*59
1516810122.01,39817,7.25,73976.0,-3.01,-4.09,-4.17,0,*59
1516810123.22,39818,7.25,73968.3,-3.03,-4.21,-4.17,0,*5E